Terug naar catalogus

CARB

ActiefWetenschapSSO
NORAD 64899·PAYLOAD·🇫🇷 France

Gelanceerd Jul 26, 2025 vanaf Guiana Space Centre

Loading…

Volgende Passages (komende 24 uur)

TLE

VersSource: Space-Track

Epoch: Sep 14, 2026, 14:57 UTC

1 64899U 25156A   26257.62309106  .00000355  00000-0  63217-4 0  9990
2 64899  98.0101 333.4444 0017223 342.9688  17.0940 14.72846643 61134

Volg CARB in realtime met AllMySat

Download on the App Store